Weather History for KBXK - February, 2013

Change the Weather History Date:

Monday, February 25, 2013

  Actual Average (KGYR) Record (KGYR)
Temperature  
Mean Temperature 48 °F -  
Max Temperature 62 °F 67 °F 86 °F (2009)
Min Temperature 35 °F 44 °F 35 °F (2007)
Degree Days  
Heating Degree Days 16    
Moisture  
Dew Point 14 °F    
Average Humidity 25    
Maximum Humidity 41    
Minimum Humidity 12    
Precipitation  
Precipitation 0.00 in - - ()
Sea Level Pressure  
Sea Level Pressure 30.13 in    
Wind  
Wind Speed 8 mph (NNE)    
Max Wind Speed 14 mph    
Max Gust Speed -    
Visibility 10 miles    
Events      
Averages and records for this station are not official NWS values.
T = Trace of Precipitation, MM = Missing Value Source: NWS Daily Summary

Daily Weather History Graph

Daily Weather History Graph

Search for Another Location

Airport or City:

Trip Planner

Search our weather history database for the weather conditions in past years. The results will help you decide how hot, cold, wet, or windy it might be!

Date:

Astronomy

Feb. 25, 2013 Rise Set
Actual Time 7:03 AM MST 6:24 PM MST
Civil Twilight 6:38 AM MST 6:49 PM MST
Nautical Twilight 6:09 AM MST 7:18 PM MST
Astronomical Twilight 5:40 AM MST 7:47 PM MST
Moon 6:38 PM MST (2/25) 6:37 AM MST (2/25)
Length of Visible Light 12h 11m
Length of Day
11h 21m
Full, 100% of the Moon is Illuminated
Feb 25
Full
Feb 25
Full
Mar 4
Last Quarter
Mar 11
New
Mar 19
First Quarter

Hourly Weather History & Observations

Time (MST) Temp. Windchill Dew Point Humidity Pressure Visibility Wind Dir Wind Speed Gust Speed Precip Events Conditions
12:15 AM 46.4 °F 41.5 °F 10.4 °F 23% 30.13 in 10.0 mi North 10.4 mph - N/A   Clear
12:35 AM 46.4 °F 40.7 °F 10.4 °F 23% 30.13 in 10.0 mi North 12.7 mph - N/A   Clear
12:55 AM 46.4 °F 41.9 °F 10.4 °F 23% 30.14 in 10.0 mi North 9.2 mph - N/A   Clear
1:15 AM 44.6 °F 39.7 °F 12.2 °F 27% 30.15 in 10.0 mi North 9.2 mph - N/A   Clear
1:35 AM 44.6 °F 38.4 °F 10.4 °F 25% 30.15 in 10.0 mi North 12.7 mph - N/A   Clear
1:55 AM 46.4 °F 40.4 °F 10.4 °F 23% 30.15 in 10.0 mi North 13.8 mph - N/A   Clear
2:15 AM 46.4 °F 40.4 °F 10.4 °F 23% 30.15 in 10.0 mi North 13.8 mph - N/A   Clear
2:35 AM 46.4 °F 40.4 °F 10.4 °F 23% 30.15 in 10.0 mi North 13.8 mph - N/A   Clear
2:55 AM 44.6 °F 38.4 °F 10.4 °F 25% 30.15 in 10.0 mi NNW 12.7 mph - N/A   Clear
3:15 AM 42.8 °F 36.6 °F 12.2 °F 29% 30.15 in 10.0 mi NNW 11.5 mph - N/A   Clear
3:35 AM 41.0 °F 34.7 °F 12.2 °F 31% 30.14 in 10.0 mi NNW 10.4 mph - N/A   Clear
3:55 AM 41.0 °F 34.7 °F 12.2 °F 31% 30.15 in 10.0 mi North 10.4 mph - N/A   Clear
4:15 AM 41.0 °F 35.8 °F 12.2 °F 31% 30.15 in 10.0 mi North 8.1 mph - N/A   Clear
4:35 AM 39.2 °F 32.5 °F 14.0 °F 36% 30.16 in 10.0 mi North 10.4 mph - N/A   Clear
4:55 AM 39.2 °F 32.0 °F 14.0 °F 36% 30.16 in 10.0 mi North 11.5 mph - N/A   Clear
5:15 AM 39.2 °F 32.5 °F 14.0 °F 36% 30.17 in 10.0 mi NNE 10.4 mph - N/A   Clear
5:35 AM 39.2 °F 33.6 °F 12.2 °F 33% 30.18 in 10.0 mi North 8.1 mph - N/A   Clear
5:55 AM 37.4 °F 33.8 °F 14.0 °F 38% 30.19 in 10.0 mi WSW 4.6 mph - N/A   Clear
6:15 AM 35.6 °F 31.7 °F 14.0 °F 41% 30.20 in 10.0 mi NNW 4.6 mph - N/A   Clear
6:35 AM 37.4 °F 30.3 °F 12.2 °F 36% 30.20 in 10.0 mi North 10.4 mph - N/A   Clear
6:55 AM 37.4 °F 30.3 °F 14.0 °F 38% 30.21 in 10.0 mi North 10.4 mph - N/A   Clear
7:15 AM 37.4 °F 29.8 °F 14.0 °F 38% 30.20 in 10.0 mi North 11.5 mph - N/A   Clear
7:35 AM 39.2 °F 33.6 °F 14.0 °F 36% 30.21 in 10.0 mi North 8.1 mph - N/A   Clear
7:55 AM 41.0 °F 35.2 °F 14.0 °F 33% 30.21 in 10.0 mi North 9.2 mph - N/A   Clear
8:15 AM 44.6 °F 40.2 °F 14.0 °F 29% 30.22 in 10.0 mi North 8.1 mph - N/A   Clear
8:35 AM 46.4 °F 42.4 °F 14.0 °F 27% 30.23 in 10.0 mi NNW 8.1 mph - N/A   Clear
8:55 AM 48.2 °F - 14.0 °F 25% 30.23 in 10.0 mi North 11.5 mph - N/A   Clear
9:15 AM 50.0 °F - 12.2 °F 22% 30.22 in 10.0 mi North 12.7 mph - N/A   Clear
9:35 AM 50.0 °F - 12.2 °F 22% 30.23 in 10.0 mi North 5.8 mph - N/A   Clear
9:55 AM 50.0 °F - 14.0 °F 24% 30.23 in 10.0 mi East 3.5 mph - N/A   Clear
10:15 AM 50.0 °F - 17.6 °F 28% 30.23 in 10.0 mi ESE 5.8 mph - N/A   Clear
10:35 AM 50.0 °F - 14.0 °F 24% 30.23 in 10.0 mi ESE 5.8 mph - N/A   Clear
10:55 AM 51.8 °F - 15.8 °F 24% 30.22 in 10.0 mi SE 5.8 mph - N/A   Clear
11:15 AM 53.6 °F - 14.0 °F 21% 30.22 in 10.0 mi SE 6.9 mph - N/A   Clear
11:35 AM 55.4 °F - 14.0 °F 20% 30.21 in 10.0 mi Calm Calm - N/A   Clear
11:55 AM 55.4 °F - 14.0 °F 20% 30.20 in 10.0 mi ESE 3.5 mph - N/A   Clear
12:15 PM 57.2 °F - 14.0 °F 18% 30.19 in 10.0 mi East 5.8 mph - N/A   Clear
12:35 PM 57.2 °F - 14.0 °F 18% 30.17 in 10.0 mi SE 5.8 mph - N/A   Clear
12:55 PM 57.2 °F - 14.0 °F 18% 30.16 in 10.0 mi East 5.8 mph - N/A   Clear
1:15 PM 57.2 °F - 14.0 °F 18% 30.15 in 10.0 mi East 4.6 mph - N/A   Clear
1:35 PM 57.2 °F - 12.2 °F 17% 30.14 in 10.0 mi Calm Calm - N/A   Clear
2:15 PM 59.0 °F - 14.0 °F 17% 30.12 in 10.0 mi Calm Calm - N/A   Clear
2:35 PM 59.0 °F - 10.4 °F 15% 30.12 in 10.0 mi Calm Calm - N/A   Clear
2:55 PM 59.0 °F - 10.4 °F 15% 30.11 in 10.0 mi Calm Calm - N/A   Clear
3:15 PM 60.8 °F - 12.2 °F 15% 30.11 in 10.0 mi Calm Calm - N/A   Clear
3:35 PM 60.8 °F - 12.2 °F 15% 30.10 in 10.0 mi Calm Calm - N/A   Clear
3:55 PM 60.8 °F - 14.0 °F 16% 30.10 in 10.0 mi ESE 3.5 mph - N/A   Clear
4:15 PM 62.6 °F - 10.4 °F 13% 30.09 in 10.0 mi WSW 5.8 mph - N/A   Clear
4:35 PM 62.6 °F - 12.2 °F 14% 30.08 in 10.0 mi SW 6.9 mph - N/A   Clear
4:55 PM 62.6 °F - 10.4 °F 13% 30.08 in 10.0 mi West 4.6 mph - N/A   Clear
5:15 PM 62.6 °F - 8.6 °F 12% 30.07 in 10.0 mi Calm Calm - N/A   Clear
5:35 PM 62.6 °F - 10.4 °F 13% 30.07 in 10.0 mi Calm Calm - N/A   Clear
5:55 PM 60.8 °F - 8.6 °F 13% 30.06 in 10.0 mi Calm Calm - N/A   Clear
6:15 PM 59.0 °F - 15.8 °F 19% 30.06 in 10.0 mi ESE 4.6 mph - N/A   Clear
6:35 PM 57.2 °F - 15.8 °F 20% 30.05 in 10.0 mi ESE 4.6 mph - N/A   Clear
6:55 PM 55.4 °F - 17.6 °F 23% 30.05 in 10.0 mi SE 5.8 mph - N/A   Clear
7:15 PM 53.6 °F - 17.6 °F 24% 30.05 in 10.0 mi ESE 5.8 mph - N/A   Clear
7:35 PM 51.8 °F - 15.8 °F 24% 30.04 in 10.0 mi ESE 4.6 mph - N/A   Clear
7:55 PM 51.8 °F - 15.8 °F 24% 30.04 in 10.0 mi ESE 3.5 mph - N/A   Clear
8:15 PM 50.0 °F - 15.8 °F 26% 30.03 in 10.0 mi ESE 4.6 mph - N/A   Clear
8:35 PM 50.0 °F - 15.8 °F 26% 30.03 in 10.0 mi ENE 3.5 mph - N/A   Clear
8:55 PM 48.2 °F - 15.8 °F 27% 30.03 in 10.0 mi NE 4.6 mph - N/A   Clear
9:15 PM 46.4 °F 45.2 °F 15.8 °F 29% 30.03 in 10.0 mi NE 3.5 mph - N/A   Clear
9:35 PM 46.4 °F 45.2 °F 15.8 °F 29% 30.04 in 10.0 mi ENE 3.5 mph - N/A   Clear
9:55 PM 44.6 °F - 15.8 °F 31% 30.05 in 10.0 mi Calm Calm - N/A   Clear
10:15 PM 44.6 °F - 15.8 °F 31% 30.04 in 10.0 mi Calm Calm - N/A   Clear
10:35 PM 42.8 °F 39.3 °F 15.8 °F 34% 30.04 in 10.0 mi North 5.8 mph - N/A   Clear
10:55 PM 41.0 °F 35.8 °F 15.8 °F 36% 30.04 in 10.0 mi North 8.1 mph - N/A   Clear
11:15 PM 41.0 °F 37.1 °F 17.6 °F 39% 30.05 in 10.0 mi North 5.8 mph - N/A   Clear
11:35 PM 41.0 °F 39.0 °F 17.6 °F 39% 30.05 in 10.0 mi North 3.5 mph - N/A   Clear
11:55 PM 41.0 °F 38.0 °F 17.6 °F 39% 30.04 in 10.0 mi North 4.6 mph - N/A   Clear